Powrót do katalogu

ONEWEB-0293

AktywnyŁącznośćPO
NORAD 49082·PAYLOAD·🇬🇧 United Kingdom

Wystrzelony Aug 21, 2021 z Baikonur Cosmodrome

Loading…

Następne Przeloty (najbliższe 24 godziny)

TLE

ŚwieżeSource: CelesTrak SupGP

Epoka: Sep 14, 2026, 14:08 UTC

1 49082C 21075H   26257.58942546  .00003016  00000+0  77771-2 0  2570
2 49082  87.9200 348.1110 0001712 102.0390  11.7002 13.17644947    13

Śledź ONEWEB-0293 w czasie rzeczywistym z AllMySat

Download on the App Store